Location: Burbank
(38.7788°N, 114.0429°W)
Time: 09:56:58
(UTC+00:00)

Courier 1B Rocket - Pass Details

Date: 11 May 2026
Orbit: 920 x 1201 km, 28.2° (Epoch: 10 June)

Event Time Altitude Azimuth Distance (km) Brightness Sun altitude
Rises 16:56:50 0° 230° (SW) 3,577 7.8 50.4°
Reaches altitude 10° 16:59:51 10° 217° (SW) 2,662 7.3 50.9°
Maximum altitude 17:04:58 25° 164° (SSE) 1,849 7.2 51.9°
Drops below altitude 10° 17:10:20 10° 112° (ESE) 2,805 8.2 52.8°
Sets 17:13:35 0° 99° (E) 3,810 8.6 53.4°
